| time (UTC) | temp F | wind direction | speed knots | gust knots | rain 1hr in | rain 24hr in | rain mn in | humidity % | barometer mb |
| 20260506162600 | 60 | 161 | 2.6 | 4.3 | 0.00 | 0.00 | 0.00 | 87 | 1011.0 |
| 20260506162057 | 60 | 138 | 2.6 | 5.2 | 0.00 | 0.00 | 0.00 | 86 | 1011.2 |
| 20260506161555 | 60 | 232 | 3.5 | 4.3 | 0.00 | 0.00 | 0.00 | 85 | 1011.1 |
| 20260506161051 | 60 | 203 | 2.6 | 7.0 | 0.00 | 0.00 | 0.00 | 84 | 1011.1 |
| 20260506160549 | 61 | 257 | 4.3 | 7.8 | 0.00 | 0.00 | 0.00 | 83 | 1010.9 |
| 20260506160045 | 61 | 178 | 0.9 | 4.3 | 0.00 | 0.00 | 0.00 | 83 | 1011.2 |
| 20260506155544 | 62 | 194 | 2.6 | 7.8 | 0.00 | 0.00 | 0.00 | 81 | 1011.3 |
| 20260506153715 | 63 | 195 | 6.1 | 7.8 | 0.00 | 0.00 | 0.00 | 80 | 1011.3 |
| 20260506153212 | 62 | 195 | 2.6 | 5.2 | 0.00 | 0.00 | 0.00 | 80 | 1011.1 |
| 20260506152709 | 62 | 119 | 4.3 | 6.1 | 0.00 | 0.00 | 0.00 | 80 | 1011.4 |
| 20260506152207 | 62 | 106 | 1.7 | 6.1 | 0.00 | 0.00 | 0.00 | 81 | 1011.7 |
| 20260506151706 | 62 | 155 | 2.6 | 4.3 | 0.00 | 0.00 | 0.00 | 81 | 1011.4 |
| 20260506151202 | 62 | 277 | 2.6 | 7.0 | 0.00 | 0.00 | 0.00 | 81 | 1011.2 |
| 20260506150658 | 62 | 146 | 2.6 | 4.3 | 0.00 | 0.00 | 0.00 | 81 | 1011.1 |
| 20260506150155 | 62 | 237 | 3.5 | 7.0 | 0.00 | 0.00 | 0.00 | 82 | 1011.2 |
| 20260506145652 | 62 | 229 | 4.3 | 7.8 | 0.00 | 0.00 | 0.00 | 82 | 1011.1 |
| 20260506145149 | 61 | 203 | 2.6 | 8.7 | 0.00 | 0.00 | 0.00 | 82 | 1011.2 |
| 20260506144647 | 62 | 197 | 5.2 | 7.8 | 0.00 | 0.00 | 0.00 | 81 | 1011.2 |
| 20260506144143 | 62 | 118 | 2.6 | 9.6 | 0.00 | 0.00 | 0.00 | 81 | 1011.3 |
| 20260506143641 | 62 | 167 | 4.3 | 7.0 | 0.00 | 0.00 | 0.00 | 81 | 1011.5 |
| 20260506143139 | 62 | 177 | 1.7 | 5.2 | 0.00 | 0.00 | 0.00 | 81 | 1011.6 |
| 20260506142637 | 62 | 167 | 4.3 | 6.1 | 0.00 | 0.00 | 0.00 | 81 | 1011.3 |
| 20260506142135 | 62 | 147 | 2.6 | 8.7 | 0.00 | 0.00 | 0.00 | 81 | 1011.3 |
| 20260506141632 | 62 | 192 | 4.3 | 12.2 | 0.00 | 0.00 | 0.00 | 81 | 1011.4 |
| 20260506141130 | 63 | 217 | 5.2 | 8.7 | 0.00 | 0.00 | 0.00 | 80 | 1011.4 |
| 20260506140627 | 63 | 163 | 6.1 | 9.6 | 0.00 | 0.00 | 0.00 | 79 | 1011.2 |
| 20260506140125 | 63 | 156 | 6.1 | 7.0 | 0.00 | 0.00 | 0.00 | 80 | 1011.3 |
| 20260506135621 | 63 | 118 | 2.6 | 5.2 | 0.00 | 0.00 | 0.00 | 80 | 1011.6 |
| 20260506135118 | 62 | 162 | 4.3 | 9.6 | 0.00 | 0.00 | 0.00 | 80 | 1011.6 |
| 20260506134614 | 63 | 114 | 1.7 | 8.7 | 0.00 | 0.00 | 0.00 | 81 | 1011.6 |
| 20260506134110 | 63 | 113 | 2.6 | 5.2 | 0.00 | 0.00 | 0.00 | 80 | 1011.6 |
| 20260506133608 | 62 | 168 | 5.2 | 8.7 | 0.00 | 0.00 | 0.00 | 80 | 1011.4 |
| 20260506133104 | 62 | 108 | 2.6 | 6.1 | 0.00 | 0.00 | 0.00 | 81 | 1011.4 |
| 20260506132602 | 62 | 67 | 0.9 | 7.8 | 0.00 | 0.00 | 0.00 | 81 | 1011.3 |
| 20260506132059 | 62 | 142 | 0.9 | 6.1 | 0.00 | 0.00 | 0.00 | 82 | 1011.1 |
| 20260506131556 | 62 | 109 | 3.5 | 7.0 | 0.00 | 0.00 | 0.00 | 82 | 1011.2 |
| 20260506131052 | 62 | 174 | 3.5 | 5.2 | 0.00 | 0.00 | 0.00 | 82 | 1011.1 |
| 20260506130549 | 62 | 266 | 3.5 | 5.2 | 0.00 | 0.00 | 0.00 | 82 | 1011.4 |
| 20260506130047 | 62 | 69 | 0.9 | 6.1 | 0.00 | 0.00 | 0.00 | 82 | 1011.1 |
| 20260506125545 | 62 | 130 | 2.6 | 4.3 | 0.00 | 0.00 | 0.00 | 82 | 1011.3 |
| 20260506125042 | 61 | 265 | 3.5 | 6.1 | 0.00 | 0.00 | 0.00 | 83 | 1011.4 |
| 20260506124540 | 61 | 291 | 2.6 | 6.1 | 0.00 | 0.00 | 0.00 | 82 | 1011.5 |
| 20260506124038 | 61 | 233 | 4.3 | 7.8 | 0.00 | 0.00 | 0.00 | 82 | 1011.5 |
| 20260506123535 | 61 | 260 | 2.6 | 4.3 | 0.00 | 0.00 | 0.00 | 83 | 1011.6 |
| 20260506123033 | 61 | 138 | 4.3 | 7.0 | 0.00 | 0.00 | 0.00 | 83 | 1011.8 |
| 20260506122529 | 61 | 194 | 6.1 | 7.0 | 0.00 | 0.00 | 0.00 | 83 | 1011.9 |
| 20260506122028 | 61 | 183 | 4.3 | 7.8 | 0.00 | 0.00 | 0.00 | 83 | 1012.1 |
| 20260506121525 | 61 | 56 | 2.6 | 4.3 | 0.00 | 0.00 | 0.00 | 84 | 1012.2 |
| 20260506121021 | 60 | 189 | 4.3 | 6.1 | 0.00 | 0.00 | 0.00 | 84 | 1012.0 |
| 20260506120519 | 61 | 255 | 7.8 | 13.0 | 0.00 | 0.00 | 0.00 | 84 | 1011.9 |
| 20260506120016 | 60 | 168 | 2.6 | 5.2 | 0.00 | 0.00 | 0.00 | 85 | 1011.7 |
| 20260506115514 | 60 | 235 | 5.2 | 8.7 | 0.00 | 0.00 | 0.00 | 85 | 1011.7 |
| 20260506115012 | 60 | 120 | 1.7 | 2.6 | 0.00 | 0.00 | 0.00 | 86 | 1011.8 |
| 20260506114509 | 59 | 211 | 2.6 | 6.1 | 0.00 | 0.00 | 0.00 | 87 | 1011.6 |
| 20260506114008 | 59 | 289 | 1.7 | 4.3 | 0.00 | 0.00 | 0.00 | 88 | 1011.8 |
| 20260506113505 | 58 | 266 | 3.5 | 6.1 | 0.00 | 0.00 | 0.00 | 88 | 1011.6 |
| 20260506113002 | 58 | 234 | 2.6 | 4.3 | 0.00 | 0.00 | 0.00 | 88 | 1011.6 |
| 20260506112459 | 58 | 181 | 1.7 | 7.0 | 0.00 | 0.00 | 0.00 | 89 | 1011.8 |
| 20260506111956 | 58 | 159 | 0.9 | 4.3 | 0.00 | 0.00 | 0.00 | 89 | 1012.0 |
| 20260506111455 | 58 | 194 | 2.6 | 8.7 | 0.00 | 0.00 | 0.00 | 89 | 1011.8 |
| 20260506110951 | 58 | 253 | 2.6 | 4.3 | 0.00 | 0.00 | 0.00 | 89 | 1011.6 |
| 20260506110449 | 58 | 183 | 2.6 | 2.6 | 0.00 | 0.00 | 0.00 | 89 | 1011.7 |
| 20260506105945 | 58 | 269 | 3.5 | 7.0 | 0.00 | 0.00 | 0.00 | 90 | 1012.0 |
| 20260506105441 | 57 | 300 | 2.6 | 2.6 | 0.00 | 0.00 | 0.00 | 90 | 1012.0 |
| 20260506104939 | 57 | 113 | 1.7 | 2.6 | 0.00 | 0.00 | 0.00 | 91 | 1011.8 |
| 20260506104437 | 57 | 248 | 2.6 | 6.1 | 0.00 | 0.00 | 0.00 | 91 | 1011.7 |
| 20260506103935 | 57 | 173 | 1.7 | 2.6 | 0.00 | 0.00 | 0.00 | 91 | 1011.8 |
| 20260506103432 | 56 | 224 | 2.6 | 2.6 | 0.00 | 0.00 | 0.00 | 92 | 1011.9 |
| 20260506102929 | 56 | 221 | 2.6 | 4.3 | 0.00 | 0.00 | 0.00 | 92 | 1011.8 |
| 20260506102427 | 56 | 140 | 1.7 | 5.2 | 0.00 | 0.00 | 0.00 | 92 | 1011.7 |
| 20260506101924 | 56 | 163 | 0.9 | 5.2 | 0.00 | 0.00 | 0.00 | 92 | 1011.7 |
| 20260506101420 | 56 | 225 | 2.6 | 5.2 | 0.00 | 0.00 | 0.00 | 92 | 1011.7 |
| 20260506100918 | 56 | 250 | 2.6 | 4.3 | 0.00 | 0.00 | 0.00 | 92 | 1011.5 |
| 20260506100416 | 56 | 245 | 2.6 | 5.2 | 0.00 | 0.00 | 0.00 | 92 | 1011.6 |
| 20260506095913 | 56 | 162 | 2.6 | 4.3 | 0.00 | 0.00 | 0.00 | 92 | 1011.6 |
| 20260506095412 | 56 | 134 | 0.9 | 2.6 | 0.00 | 0.00 | 0.00 | 92 | 1011.5 |
| 20260506094908 | 56 | 237 | 2.6 | 2.6 | 0.00 | 0.00 | 0.00 | 91 | 1011.5 |
| 20260506094407 | 56 | 84 | 0.9 | 1.7 | 0.00 | 0.00 | 0.00 | 91 | 1011.5 |
| 20260506093904 | 56 | 94 | 1.7 | 2.6 | 0.00 | 0.00 | 0.00 | 91 | 1011.5 |
| 20260506093401 | 56 | 353 | 1.7 | 1.7 | 0.00 | 0.00 | 0.00 | 90 | 1011.4 |
| 20260506092859 | 56 | 124 | 2.6 | 6.1 | 0.00 | 0.00 | 0.00 | 90 | 1011.6 |
| 20260506092357 | 56 | 43 | 0.9 | 1.7 | 0.00 | 0.00 | 0.00 | 90 | 1011.6 |
| 20260506091853 | 56 | 184 | 1.7 | 2.6 | 0.00 | 0.00 | 0.00 | 90 | 1011.7 |
| 20260506091351 | 56 | 288 | 2.6 | 2.6 | 0.00 | 0.00 | 0.00 | 90 | 1011.5 |
| 20260506090848 | 56 | 225 | 4.3 | 7.0 | 0.00 | 0.00 | 0.00 | 89 | 1011.8 |
| 20260506090346 | 56 | 199 | 3.5 | 6.1 | 0.00 | 0.00 | 0.00 | 89 | 1011.7 |
| 20260506085842 | 57 | 268 | 3.5 | 7.0 | 0.00 | 0.00 | 0.00 | 89 | 1011.6 |
| 20260506085338 | 57 | 218 | 0.9 | 4.3 | 0.00 | 0.00 | 0.00 | 89 | 1011.6 |
| 20260506084835 | 57 | 255 | 3.5 | 6.1 | 0.00 | 0.00 | 0.00 | 89 | 1011.9 |
| 20260506084332 | 57 | 167 | 3.5 | 5.2 | 0.00 | 0.00 | 0.00 | 89 | 1011.9 |
| 20260506083828 | 57 | 76 | 1.7 | 5.2 | 0.00 | 0.00 | 0.00 | 89 | 1012.0 |
| 20260506083326 | 57 | 239 | 3.5 | 6.1 | 0.00 | 0.00 | 0.00 | 89 | 1012.0 |
| 20260506082823 | 57 | 107 | 0.9 | 2.6 | 0.00 | 0.00 | 0.00 | 88 | 1011.9 |
| 20260506082320 | 57 | 101 | 1.7 | 4.3 | 0.00 | 0.00 | 0.00 | 88 | 1011.9 |
| 20260506081816 | 57 | 157 | 2.6 | 4.3 | 0.00 | 0.00 | 0.00 | 88 | 1011.9 |
| 20260506081314 | 57 | 124 | 1.7 | 4.3 | 0.00 | 0.00 | 0.00 | 88 | 1012.0 |
| 20260506080812 | 57 | 261 | 5.2 | 7.8 | 0.00 | 0.00 | 0.00 | 88 | 1011.9 |
| 20260506080308 | 57 | 125 | 0.9 | 1.7 | 0.00 | 0.00 | 0.00 | 88 | 1011.8 |
| 20260506073252 | 57 | 267 | 2.6 | 5.2 | 0.00 | 0.00 | 0.00 | 87 | 1012.0 |
| 20260506072748 | 57 | 158 | 0.9 | 2.6 | 0.00 | 0.00 | 0.00 | 87 | 1011.8 |
| 20260506072246 | 57 | 272 | 1.7 | 2.6 | 0.00 | 0.00 | 0.00 | 87 | 1011.8 |
| 20260506071744 | 57 | 258 | 2.6 | 7.0 | 0.00 | 0.00 | 0.00 | 87 | 1012.1 |
| 20260506071242 | 57 | 124 | 1.7 | 2.6 | 0.00 | 0.00 | 0.00 | 86 | 1011.9 |
| 20260506070738 | 57 | 123 | 0.9 | 2.6 | 0.00 | 0.00 | 0.00 | 86 | 1011.7 |
| 20260506070235 | 58 | 273 | 3.5 | 5.2 | 0.00 | 0.00 | 0.00 | 86 | 1011.9 |
| 20260506062212 | 58 | 203 | 2.6 | 2.6 | 0.00 | 0.00 | 0.00 | 85 | 1012.0 |
| 20260506061708 | 58 | 207 | 2.6 | 4.3 | 0.00 | 0.00 | 0.00 | 85 | 1012.0 |
| 20260506061206 | 58 | 154 | 1.7 | 5.2 | 0.00 | 0.00 | 0.00 | 84 | 1011.9 |
| 20260506060705 | 58 | 206 | 2.6 | 4.3 | 0.00 | 0.00 | 0.00 | 84 | 1011.8 |
| 20260506060201 | 58 | 264 | 1.7 | 2.6 | 0.00 | 0.00 | 0.00 | 84 | 1011.9 |
| 20260506051133 | 60 | 209 | 1.7 | 4.3 | 0.00 | 0.00 | 0.00 | 81 | 1012.1 |
| 20260506050631 | 60 | 196 | 1.7 | 2.6 | 0.00 | 0.00 | 0.00 | 81 | 1012.0 |
| 20260506050128 | 60 | 138 | 2.6 | 2.6 | 0.00 | 0.00 | 0.00 | 81 | 1012.2 |
| 20260506045121 | 60 | 101 | 0.9 | 2.6 | 0.00 | 0.00 | 0.00 | 80 | 1012.2 |
| 20260506044619 | 61 | 126 | 1.7 | 4.3 | 0.00 | 0.00 | 0.00 | 80 | 1012.2 |
| 20260506044116 | 61 | 282 | 3.5 | 6.1 | 0.00 | 0.00 | 0.00 | 79 | 1012.1 |
| 20260506043613 | 61 | 149 | 2.6 | 7.8 | 0.00 | 0.00 | 0.00 | 79 | 1012.1 |
| 20260506043111 | 61 | 305 | 2.6 | 7.0 | 0.00 | 0.00 | 0.00 | 79 | 1012.0 |
| 20260506042610 | 61 | 138 | 3.5 | 4.3 | 0.00 | 0.00 | 0.00 | 79 | 1012.3 |
| 20260506042107 | 61 | 244 | 2.6 | 4.3 | 0.00 | 0.00 | 0.00 | 78 | 1012.3 |
| 20260506041606 | 62 | 181 | 3.5 | 6.1 | 0.00 | 0.00 | 0.00 | 78 | 1012.3 |
| 20260506041102 | 62 | 263 | 4.3 | 6.1 | 0.00 | 0.00 | 0.00 | 78 | 1012.2 |
| 20260506040600 | 62 | 197 | 2.6 | 9.6 | 0.00 | 0.00 | 0.00 | 77 | 1012.3 |
| 20260506040056 | 62 | 177 | 4.3 | 7.0 | 0.00 | 0.00 | 0.00 | 77 | 1012.0 |
| 20260506035553 | 62 | 240 | 2.6 | 5.2 | 0.00 | 0.00 | 0.00 | 77 | 1012.1 |
| 20260506035050 | 62 | 187 | 2.6 | 2.6 | 0.00 | 0.00 | 0.00 | 77 | 1012.4 |
| 20260506034547 | 62 | 115 | 1.7 | 2.6 | 0.00 | 0.00 | 0.00 | 77 | 1012.1 |
| 20260506034044 | 62 | 192 | 1.7 | 6.1 | 0.00 | 0.00 | 0.00 | 77 | 1012.0 |
| 20260506033541 | 62 | 245 | 3.5 | 6.1 | 0.00 | 0.00 | 0.00 | 77 | 1012.1 |
| 20260506033038 | 62 | 238 | 3.5 | 6.1 | 0.00 | 0.00 | 0.00 | 77 | 1011.9 |
| 20260506032536 | 62 | 119 | 1.7 | 2.6 | 0.00 | 0.00 | 0.00 | 77 | 1012.0 |
| 20260506032032 | 62 | 109 | 4.3 | 7.0 | 0.00 | 0.00 | 0.00 | 76 | 1012.1 |
| 20260506031530 | 62 | 140 | 2.6 | 7.0 | 0.00 | 0.00 | 0.00 | 76 | 1012.1 |
| 20260506031027 | 62 | 169 | 4.3 | 6.1 | 0.00 | 0.00 | 0.00 | 76 | 1012.0 |
| 20260506030525 | 62 | 123 | 3.5 | 7.8 | 0.00 | 0.00 | 0.00 | 76 | 1012.2 |
| 20260506030022 | 62 | 279 | 2.6 | 5.2 | 0.00 | 0.00 | 0.00 | 75 | 1012.1 |
| 20260506025519 | 62 | 240 | 3.5 | 7.8 | 0.00 | 0.00 | 0.00 | 74 | 1012.3 |
| 20260506025015 | 62 | 124 | 2.6 | 6.1 | 0.00 | 0.00 | 0.00 | 74 | 1012.1 |
| 20260506024512 | 62 | 180 | 2.6 | 7.0 | 0.00 | 0.00 | 0.00 | 74 | 1012.1 |
| 20260506024008 | 62 | 232 | 4.3 | 6.1 | 0.00 | 0.00 | 0.00 | 74 | 1012.2 |
| 20260506023504 | 63 | 192 | 3.5 | 8.7 | 0.00 | 0.00 | 0.00 | 73 | 1012.2 |
| 20260506023001 | 63 | 82 | 1.7 | 7.8 | 0.00 | 0.00 | 0.00 | 73 | 1012.1 |
| 20260506022459 | 63 | 196 | 3.5 | 5.2 | 0.00 | 0.00 | 0.00 | 72 | 1012.2 |
| 20260506021957 | 63 | 159 | 0.9 | 6.1 | 0.00 | 0.00 | 0.00 | 72 | 1012.4 |
| 20260506021454 | 63 | 335 | 1.7 | 9.6 | 0.00 | 0.00 | 0.00 | 72 | 1012.1 |
| 20260506020951 | 63 | 267 | 5.2 | 9.6 | 0.00 | 0.00 | 0.00 | 71 | 1012.0 |
| 20260506020449 | 63 | 206 | 1.7 | 5.2 | 0.00 | 0.00 | 0.00 | 72 | 1012.0 |
| 20260506015945 | 63 | 142 | 2.6 | 7.0 | 0.00 | 0.00 | 0.00 | 71 | 1011.9 |
| 20260506015443 | 63 | 204 | 5.2 | 6.1 | 0.00 | 0.00 | 0.00 | 71 | 1011.8 |
| 20260506014940 | 63 | 75 | 3.5 | 7.8 | 0.00 | 0.00 | 0.00 | 71 | 1011.9 |
| 20260506014437 | 63 | 299 | 3.5 | 6.1 | 0.00 | 0.00 | 0.00 | 72 | 1011.8 |
| 20260506013933 | 63 | 183 | 3.5 | 6.1 | 0.00 | 0.00 | 0.00 | 72 | 1011.8 |
| 20260506013432 | 63 | 201 | 2.6 | 4.3 | 0.00 | 0.00 | 0.00 | 71 | 1011.7 |
| 20260506012928 | 63 | 278 | 3.5 | 5.2 | 0.00 | 0.00 | 0.00 | 71 | 1011.4 |
| 20260506012424 | 63 | 214 | 6.1 | 9.6 | 0.00 | 0.00 | 0.00 | 70 | 1011.4 |
| 20260506011921 | 64 | 270 | 4.3 | 7.0 | 0.00 | 0.00 | 0.00 | 70 | 1011.7 |
| 20260506011418 | 63 | 298 | 3.5 | 7.0 | 0.00 | 0.00 | 0.00 | 70 | 1011.4 |
| 20260506010915 | 63 | 145 | 2.6 | 5.2 | 0.00 | 0.00 | 0.00 | 70 | 1011.5 |
| 20260506010414 | 64 | 251 | 5.2 | 9.6 | 0.00 | 0.00 | 0.00 | 70 | 1011.4 |
| 20260506005910 | 63 | 265 | 5.2 | 7.0 | 0.00 | 0.00 | 0.00 | 70 | 1011.3 |
| 20260506005408 | 64 | 252 | 2.6 | 8.7 | 0.00 | 0.00 | 0.00 | 70 | 1011.3 |
| 20260506004902 | 64 | 251 | 6.1 | 7.0 | 0.00 | 0.00 | 0.00 | 70 | 1011.0 |
| 20260506004401 | 63 | 279 | 4.3 | 7.8 | 0.00 | 0.00 | 0.00 | 70 | 1010.9 |
| 20260506003856 | 63 | 244 | 4.3 | 6.1 | 0.00 | 0.00 | 0.00 | 70 | 1011.1 |
| 20260506003353 | 63 | 132 | 0.9 | 5.2 | 0.00 | 0.00 | 0.00 | 71 | 1011.0 |
| 20260506002849 | 63 | 190 | 3.5 | 8.7 | 0.00 | 0.00 | 0.00 | 69 | 1010.9 |
| 20260506002346 | 63 | 209 | 4.3 | 7.0 | 0.00 | 0.00 | 0.00 | 70 | 1010.9 |
| 20260506001841 | 64 | 219 | 2.6 | 7.8 | 0.00 | 0.00 | 0.00 | 69 | 1011.1 |
| 20260506001339 | 64 | 146 | 3.5 | 8.7 | 0.00 | 0.00 | 0.00 | 69 | 1011.1 |
| 20260506000836 | 64 | 215 | 3.5 | 7.0 | 0.00 | 0.00 | 0.00 | 68 | 1010.7 |
| 20260506000334 | 64 | 278 | 7.0 | 8.7 | 0.00 | 0.00 | 0.00 | 67 | 1010.6 |
| 20260505235830 | 64 | 218 | 3.5 | 8.7 | 0.00 | 0.00 | 0.00 | 67 | 1010.8 |
| 20260505235327 | 64 | 263 | 4.3 | 8.7 | 0.00 | 0.00 | 0.00 | 67 | 1010.5 |
| 20260505234824 | 65 | 132 | 1.7 | 6.1 | 0.00 | 0.00 | 0.00 | 67 | 1010.5 |
| 20260505234322 | 64 | 238 | 3.5 | 7.0 | 0.00 | 0.00 | 0.00 | 67 | 1010.5 |
| 20260505233819 | 64 | 279 | 3.5 | 8.7 | 0.00 | 0.00 | 0.00 | 67 | 1010.5 |
| 20260505233317 | 65 | 280 | 4.3 | 6.1 | 0.00 | 0.00 | 0.00 | 67 | 1010.4 |
| 20260505232814 | 65 | 251 | 4.3 | 12.2 | 0.00 | 0.00 | 0.00 | 66 | 1010.5 |
| 20260505232311 | 65 | 215 | 2.6 | 6.1 | 0.00 | 0.00 | 0.00 | 66 | 1010.5 |
| 20260505231808 | 65 | 231 | 2.6 | 7.8 | 0.00 | 0.00 | 0.00 | 66 | 1010.3 |
| 20260505231306 | 66 | 247 | 4.3 | 7.0 | 0.00 | 0.00 | 0.00 | 66 | 1010.1 |
| 20260505230804 | 66 | 170 | 2.6 | 7.0 | 0.00 | 0.00 | 0.00 | 66 | 1010.1 |
| 20260505230300 | 66 | 256 | 6.1 | 8.7 | 0.00 | 0.00 | 0.00 | 65 | 1010.1 |
| 20260505225757 | 67 | 128 | 1.7 | 2.6 | 0.00 | 0.00 | 0.00 | 65 | 1010.1 |
| 20260505225254 | 67 | 121 | 0.9 | 5.2 | 0.00 | 0.00 | 0.00 | 65 | 1009.9 |
| 20260505224749 | 67 | 235 | 7.8 | 8.7 | 0.00 | 0.00 | 0.00 | 64 | 1009.8 |
| 20260505224247 | 68 | 141 | 1.7 | 5.2 | 0.00 | 0.00 | 0.00 | 64 | 1010.0 |
| 20260505223745 | 68 | 176 | 3.5 | 12.2 | 0.00 | 0.00 | 0.00 | 63 | 1010.1 |
| 20260505223241 | 68 | 185 | 3.5 | 6.1 | 0.00 | 0.00 | 0.00 | 63 | 1010.2 |
| 20260505222737 | 68 | 275 | 2.6 | 5.2 | 0.00 | 0.00 | 0.00 | 63 | 1010.1 |
| 20260505222233 | 68 | 248 | 2.6 | 9.6 | 0.00 | 0.00 | 0.00 | 63 | 1010.2 |
| 20260505221731 | 68 | 180 | 1.7 | 5.2 | 0.00 | 0.00 | 0.00 | 64 | 1010.0 |
| 20260505221227 | 68 | 279 | 6.1 | 8.7 | 0.00 | 0.00 | 0.00 | 63 | 1010.1 |
| 20260505220724 | 69 | 209 | 4.3 | 7.0 | 0.00 | 0.00 | 0.00 | 62 | 1010.1 |
| 20260505220222 | 69 | 217 | 3.5 | 7.0 | 0.00 | 0.00 | 0.00 | 62 | 1009.9 |
| 20260505215720 | 69 | 157 | 2.6 | 12.2 | 0.00 | 0.00 | 0.00 | 63 | 1010.0 |
| 20260505215217 | 69 | 271 | 7.8 | 11.3 | 0.00 | 0.00 | 0.00 | 63 | 1009.8 |
| 20260505214714 | 69 | 223 | 3.5 | 8.7 | 0.00 | 0.00 | 0.00 | 63 | 1009.8 |
| 20260505214212 | 69 | 88 | 0.9 | 4.3 | 0.00 | 0.00 | 0.00 | 63 | 1009.9 |
| 20260505213709 | 68 | 111 | 2.6 | 6.1 | 0.00 | 0.00 | 0.00 | 64 | 1010.0 |
| 20260505213206 | 69 | 255 | 4.3 | 11.3 | 0.00 | 0.00 | 0.00 | 64 | 1009.9 |
| 20260505212702 | 69 | 163 | 2.6 | 5.2 | 0.00 | 0.00 | 0.00 | 64 | 1010.0 |
| 20260505212159 | 69 | 197 | 6.1 | 11.3 | 0.00 | 0.00 | 0.00 | 63 | 1009.8 |
| 20260505211656 | 69 | 122 | 3.5 | 8.7 | 0.00 | 0.00 | 0.00 | 63 | 1009.7 |
| 20260505211154 | 69 | 193 | 4.3 | 8.7 | 0.00 | 0.00 | 0.00 | 62 | 1009.8 |
| 20260505210650 | 70 | 146 | 6.1 | 7.0 | 0.00 | 0.00 | 0.00 | 62 | 1009.8 |
| 20260505210147 | 69 | 112 | 2.6 | 11.3 | 0.00 | 0.00 | 0.00 | 62 | 1009.9 |
| 20260505205644 | 69 | 147 | 4.3 | 7.8 | 0.00 | 0.00 | 0.00 | 63 | 1009.8 |
| 20260505205142 | 69 | 157 | 4.3 | 7.8 | 0.00 | 0.00 | 0.00 | 63 | 1010.0 |
| 20260505204639 | 70 | 170 | 7.0 | 7.8 | 0.00 | 0.00 | 0.00 | 61 | 1009.8 |
| 20260505204137 | 71 | 245 | 4.3 | 5.2 | 0.00 | 0.00 | 0.00 | 62 | 1009.8 |
| 20260505203633 | 70 | 255 | 4.3 | 7.8 | 0.00 | 0.00 | 0.00 | 62 | 1009.6 |
| 20260505203131 | 70 | 141 | 3.5 | 12.2 | 0.00 | 0.00 | 0.00 | 62 | 1009.9 |
| 20260505202626 | 71 | 258 | 4.3 | 5.2 | 0.00 | 0.00 | 0.00 | 62 | 1009.9 |
| 20260505202122 | 71 | 93 | 1.7 | 6.1 | 0.00 | 0.00 | 0.00 | 63 | 1010.0 |
| 20260505201619 | 71 | 214 | 3.5 | 7.8 | 0.00 | 0.00 | 0.00 | 62 | 1009.9 |
| 20260505201117 | 70 | 132 | 2.6 | 5.2 | 0.00 | 0.00 | 0.00 | 63 | 1009.9 |
| 20260505200615 | 71 | 201 | 4.3 | 7.0 | 0.00 | 0.00 | 0.00 | 62 | 1009.9 |
| 20260505200111 | 70 | 275 | 4.3 | 6.1 | 0.00 | 0.00 | 0.00 | 62 | 1010.0 |
| 20260505195608 | 70 | 139 | 2.6 | 7.8 | 0.00 | 0.00 | 0.00 | 63 | 1010.0 |
| 20260505195105 | 71 | 242 | 4.3 | 11.3 | 0.00 | 0.00 | 0.00 | 62 | 1010.3 |
| 20260505194602 | 71 | 239 | 4.3 | 8.7 | 0.00 | 0.00 | 0.00 | 61 | 1010.0 |
| 20260505194058 | 71 | 185 | 2.6 | 7.8 | 0.00 | 0.00 | 0.00 | 62 | 1010.2 |
| 20260505193555 | 71 | 245 | 2.6 | 11.3 | 0.00 | 0.00 | 0.00 | 61 | 1010.1 |
| 20260505193052 | 71 | 112 | 2.6 | 7.0 | 0.00 | 0.00 | 0.00 | 62 | 1010.3 |
| 20260505192551 | 71 | 107 | 3.5 | 7.0 | 0.00 | 0.00 | 0.00 | 62 | 1010.3 |
| 20260505192048 | 71 | 305 | 4.3 | 11.3 | 0.00 | 0.00 | 0.00 | 62 | 1010.5 |
| 20260505191546 | 71 | 115 | 4.3 | 7.8 | 0.00 | 0.00 | 0.00 | 62 | 1010.7 |
| 20260505191044 | 71 | 243 | 2.6 | 13.0 | 0.00 | 0.00 | 0.00 | 61 | 1010.4 |
| 20260505190544 | 71 | 242 | 2.6 | 8.7 | 0.00 | 0.00 | 0.00 | 63 | 1010.8 |
| 20260505190040 | 71 | 90 | 3.5 | 12.2 | 0.00 | 0.00 | 0.00 | 62 | 1010.7 |
| 20260505185537 | 72 | 223 | 6.1 | 12.2 | 0.00 | 0.00 | 0.00 | 61 | 1010.9 |
| 20260505185033 | 71 | 236 | 4.3 | 7.8 | 0.00 | 0.00 | 0.00 | 63 | 1010.8 |
| 20260505184530 | 71 | 127 | 2.6 | 5.2 | 0.00 | 0.00 | 0.00 | 63 | 1010.7 |
| 20260505184027 | 71 | 175 | 6.1 | 7.0 | 0.00 | 0.00 | 0.00 | 62 | 1010.9 |
| 20260505183524 | 71 | 213 | 6.1 | 8.7 | 0.00 | 0.00 | 0.00 | 62 | 1010.7 |
| 20260505183021 | 70 | 68 | 2.6 | 8.7 | 0.00 | 0.00 | 0.00 | 64 | 1010.8 |
| 20260505182517 | 71 | 260 | 5.2 | 7.0 | 0.00 | 0.00 | 0.00 | 61 | 1010.8 |
| 20260505182014 | 72 | 226 | 4.3 | 8.7 | 0.00 | 0.00 | 0.00 | 61 | 1010.8 |
| 20260505181511 | 71 | 182 | 2.6 | 6.1 | 0.00 | 0.00 | 0.00 | 63 | 1010.8 |
| 20260505181008 | 71 | 193 | 2.6 | 5.2 | 0.00 | 0.00 | 0.00 | 63 | 1010.9 |
| 20260505180504 | 72 | 161 | 1.7 | 5.2 | 0.00 | 0.00 | 0.00 | 64 | 1010.7 |
| 20260505180001 | 71 | 207 | 5.2 | 7.0 | 0.00 | 0.00 | 0.00 | 62 | 1011.0 |
| 20260505175457 | 72 | 160 | 2.6 | 8.7 | 0.00 | 0.00 | 0.00 | 63 | 1010.9 |
| 20260505174954 | 72 | 157 | 2.6 | 7.8 | 0.00 | 0.00 | 0.00 | 61 | 1010.7 |
| 20260505174451 | 73 | 225 | 3.5 | 7.0 | 0.00 | 0.00 | 0.00 | 60 | 1011.0 |
| 20260505173947 | 72 | 122 | 2.6 | 7.0 | 0.00 | 0.00 | 0.00 | 62 | 1010.8 |
| 20260505173444 | 72 | 180 | 6.1 | 11.3 | 0.00 | 0.00 | 0.00 | 60 | 1011.2 |
| 20260505172941 | 72 | 122 | 4.3 | 7.0 | 0.00 | 0.00 | 0.00 | 62 | 1011.2 |
| 20260505172439 | 72 | 221 | 4.3 | 7.8 | 0.00 | 0.00 | 0.00 | 61 | 1011.2 |
| 20260505171938 | 72 | 176 | 2.6 | 5.2 | 0.00 | 0.00 | 0.00 | 64 | 1011.1 |
| 20260505171435 | 71 | 233 | 5.2 | 6.1 | 0.00 | 0.00 | 0.00 | 61 | 1011.3 |
| 20260505170932 | 72 | 129 | 4.3 | 8.7 | 0.00 | 0.00 | 0.00 | 61 | 1011.1 |
| 20260505170429 | 71 | 267 | 3.5 | 7.0 | 0.00 | 0.00 | 0.00 | 62 | 1011.2 |
| 20260505165924 | 71 | 174 | 2.6 | 7.8 | 0.00 | 0.00 | 0.00 | 62 | 1011.2 |
| 20260505165420 | 71 | 154 | 4.3 | 7.8 | 0.00 | 0.00 | 0.00 | 61 | 1011.2 |
| 20260505164916 | 71 | 183 | 2.6 | 9.6 | 0.00 | 0.00 | 0.00 | 63 | 1011.0 |
| 20260505164413 | 71 | 113 | 0.9 | 1.7 | 0.00 | 0.00 | 0.00 | 65 | 1011.1 |
| 20260505163911 | 71 | 271 | 3.5 | 7.0 | 0.00 | 0.00 | 0.00 | 62 | 1011.4 |
| 20260505163410 | 70 | 247 | 3.5 | 7.0 | 0.00 | 0.00 | 0.00 | 64 | 1011.4 |